Regional Weather Roundup
Issued by NWS Little Rock, AR

Home | Current Version | Previous Version | Graphics & Text | Print | Product List | Glossary On
Versions: 1 2 3 4 5 6 7 8 9 10 11 12 13 14 15 16 17 18 19 20 21 22 23 24 25 26 27 28 29 30 31 32 33 34 35 36 37 38 39 40 41 42 43 44 45 46 47 48 49 50
091
ASUS44 KLZK 121005
RWRLZK

WEATHER ROUNDUP FOR ARKANSAS
NATIONAL WEATHER SERVICE LITTLE ROCK AR
400 AM CST TUE DEC 12 2017

NOTE: "FAIR" INDICATES FEW OR NO CLOUDS BELOW 12,000 FEET WITH NO
SIGNIFICANT WEATHER AND/OR OBSTRUCTIONS TO VISIBILITY.

ARZ001-003-010-029-121100-
NORTHWEST ARKANSAS

CITY           SKY/WX    TMP DP  RH WIND       PRES   REMARKS
FAYETTEVILLE   CLEAR     35  24  64 N14       30.27R WCI  26
FORT SMITH     CLEAR     43  22  43 NW14      30.29R
HARRISON       CLEAR     36  26  67 NW15G28   30.21R
BENTONVILLE    CLEAR     34  21  59 NW10      30.29R WCI  26
ROGERS         CLEAR     34  22  61 NW14      30.28R WCI  25
SILOAM SPGS    CLEAR     33  23  66 N15       30.29R WCI  23
HIGHFILL       CLEAR     34  21  59 N16G24    30.28R WCI  24
$$

ARZ004-005-016-121100-
NORTH CENTRAL ARKANSAS

CITY           SKY/WX    TMP DP  RH WIND       PRES   REMARKS
BATESVILLE     CLOUDY    47  31  53 NW12G21   30.13R
FLIPPIN        PTCLDY    40  26  57 NW13G20   30.21R
MTN HOME       PTCLDY    38  28  67 N8G20     30.18R
$$

ARZ040-041-121100-
WEST CENTRAL ARKANSAS

CITY           SKY/WX    TMP DP  RH WIND       PRES   REMARKS
MENA           CLEAR     45  32  61 NW13G18   30.23S
MOUNT IDA      CLEAR     46  31  55 MISG      30.19R
$$

ARZ009-017-025-026-028-121100-
NORTHEAST ARKANSAS

CITY           SKY/WX    TMP DP  RH WIND       PRES   REMARKS
CORNING        CLOUDY    46  32  57 NW16      30.09
JONESBORO      CLEAR     46  33  60 NW9       30.09R
NEWPORT        CLEAR     40  30  67 NW9       30.11S
WALNUT RIDGE   PTCLDY    43  31  62 NW14      30.10R
BLYTHEVILLE    CLOUDY    45  36  70 N12       30.06S
$$

ARZ022-023-033-042-044-121100-
CENTRAL ARKANSAS

CITY           SKY/WX    TMP DP  RH WIND       PRES   REMARKS
LITTLE ROCK    PTCLDY    48  30  49 NW16      30.15R
N LITTLE ROCK    N/A     47  31  53 NW7       30.16R
JACKSONVILLE   CLEAR     47  30  50 NW10      30.14R
SEARCY         CLEAR     47  32  56 W5        30.13S
HOT SPRINGS    CLEAR     49  30  48 N12G18    30.18R
RUSSELLVILLE   CLEAR     45  27  49 NW13      30.20R
CLINTON        FAIR      46  32  57 NW12G17   30.17R
$$

ARZ036-121100-
EAST ARKANSAS

CITY           SKY/WX    TMP DP  RH WIND       PRES   REMARKS
WEST MEMPHIS   CLEAR     43  34  70 NW7       30.07R
$$

ARZ050-053-066-070-073-121100-
SOUTHWEST ARKANSAS

CITY           SKY/WX    TMP DP  RH WIND       PRES   REMARKS
ARKADELPHIA    FAIR      50  30  46 NW12      30.18R
CAMDEN         CLEAR     48  25  40 NW5       30.16R
TEXARKANA      CLEAR     48  28  46 NW12      30.21R
EL DORADO      CLEAR     49  29  46 NW10      30.16R
DE QUEEN       CLEAR     47  30  51 VRB7      30.22R
$$

ARZ056-057-069-121100-
SOUTHEAST ARKANSAS

CITY           SKY/WX    TMP DP  RH WIND       PRES   REMARKS
PINE BLUFF     CLEAR     47  30  51 NW10      30.14R
STUTTGART      CLEAR     46  31  55 NW13      30.13R
MONTICELLO     CLEAR     50  28  42 VRB3      30.13R

$$






USA.gov is the U.S. government's official web portal to all federal, state and local government web resources and services.